[[{"header":{"parameterUnit":"m.s-1","parameterCategory":1,"la1":30.2992,"la2":30.254,"lo1":-89.0895,"lo2":-89.0443,"dy":0.0025,"dx":0.0025,"nx":19,"ny":19,"refTime":"2026-05-18T03:00:00:Z","depth":0,"parameterNumber":2,"parameterNumberName":"U-component_of_WINDS"},"data":[0,0,0,-4.205,-4.2053,-4.2187,-4.2187,-4.236,-4.2361,0,0,0,0,0,0,0,0,0,0,0,-4.2011,-4.2012,-4.205,-4.2053,-4.2187,-4.2188,-4.2359,-4.2361,0,0,0,0,0,0,0,0,0,0,0,-4.2011,-4.2012,-4.2014,-4.2054,-4.2187,-4.2188,-4.2359,-4.2258,0,0,0,0,0,0,0,0,0,0,-4.2127,-4.2092,-4.2012,-4.2014,-4.2055,-4.2187,-4.2188,-4.2253,-4.2264,-4.2299,0,-4.2332,0,-4.2349,-4.2373,-4.2373,0,0,0,-4.2052,-4.2083,-4.2118,-4.2014,-4.2056,-4.2187,-4.2126,-4.2259,-4.2272,-4.2314,-4.2334,-4.234,-4.2352,-4.2374,-4.2375,-4.2583,-4.2584,0,0,-4.2045,-4.2036,-4.211,-4.2127,-4.2107,-4.2122,-4.2131,-4.2267,-4.2287,-4.2335,-4.2344,-4.2355,-4.2375,-4.2376,-4.2582,-4.2583,0,0,0,-4.2024,-4.2031,-4.2063,-4.212,-4.2144,-4.2126,-4.2136,-4.2281,-4.2292,-4.2346,-4.2357,-4.2376,-4.2378,-4.2581,-4.2583,-4.2622,0,0,0,-4.202,-4.2018,-4.2059,-4.2055,-4.2141,-4.2214,-4.2147,-4.2283,-4.2299,-4.2356,-4.2376,-4.238,-4.258,-4.2582,-4.2619,-4.2642,0,0,0,-4.2002,-4.2016,-4.2036,-4.2054,-4.2112,-4.2212,-4.2231,-4.2287,-4.2305,-4.2374,-4.238,-4.2579,-4.2582,-4.2616,-4.2637,-4.2693,0,0,0,-4.1981,-4.207,-4.2037,-4.2141,-4.211,-4.2236,-4.2231,-4.2325,-4.2388,-4.2377,-4.258,-4.2582,-4.2615,-4.2634,-4.2689,-4.2736,-4.2756,0,0,-4.2088,-4.2082,-4.2144,-4.2119,-4.2248,-4.2217,-4.2352,-4.2419,-4.2434,-4.2533,-4.2538,-4.262,-4.2636,-4.2692,-4.2871,-4.2886,0,0,0,-4.2175,-4.2219,-4.2255,-4.2315,-4.2369,-4.2417,-4.2464,-4.2489,-4.2573,-4.2483,-4.2657,-4.2667,-4.27,-4.2722,-4.2735,-4.2764,-4.2593,-4.2593,-4.2593,-4.2311,-4.2327,-4.243,-4.2461,-4.252,-4.2568,-4.2616,-4.2658,-4.2656,-4.2697,-4.2726,-4.2833,-4.2859,-4.2869,-4.2898,-4.2754,-4.2754,-4.2754,-4.2754,-4.2468,-4.2532,-4.2529,-4.2627,-4.2642,-4.2725,-4.2776,-4.2772,-4.2851,-4.2812,-4.2842,-4.2797,-4.2885,-4.2911,-4.2757,-4.2757,-4.2756,-4.2756,-4.2756,-4.2557,-4.259,-4.262,-4.2708,-4.2775,-4.2804,-4.288,-4.2892,-4.2904,-4.2934,-4.2964,-4.2964,-4.2963,-4.2948,-4.2948,-4.2949,-4.2949,-4.2949,-4.295,-4.2637,-4.2669,-4.2731,-4.2797,-4.2837,-4.2891,-4.2942,-4.2982,-4.3029,-4.3031,-4.3032,-4.3025,-4.2892,-4.2857,-4.2955,-4.2954,-4.2954,-4.2953,-4.2953,-4.2786,-4.2755,-4.2851,-4.2891,-4.2969,-4.3033,-4.3049,-4.3129,-4.3164,-4.3201,-4.3189,-4.3089,-4.3084,-4.3074,-4.3045,-4.3186,-4.3186,-4.3186,-4.3186,-4.2859,-4.2859,-4.296,-4.3023,-4.3087,-4.3111,-4.3219,-4.326,-4.3297,-4.3319,-4.3301,-4.3265,-4.3254,-4.3255,-4.3241,-4.3214,-4.3395,-4.3395,-4.3395,-4.2951,-4.2958,-4.3047,-4.3083,-4.3144,-4.3197,-4.3299,-4.3371,-4.3407,-4.3404,-4.3336,-4.3328,-4.3269,-4.3249,-4.3241,-4.3219,-4.317,0,0]},{"header":{"parameterUnit":"m.s-1","parameterCategory":1,"la1":30.2992,"la2":30.254,"lo1":-89.0895,"lo2":-89.0443,"dy":0.0025,"dx":0.0025,"nx":19,"ny":19,"refTime":"2026-05-18T03:00:00:Z","depth":0,"parameterNumber":3,"parameterNumberName":"V-component_of_WINDS"},"data":[0,0,0,2.782,2.7822,2.7915,2.7915,2.8027,2.8028,0,0,0,0,0,0,0,0,0,0,0,2.7789,2.779,2.7819,2.7822,2.7915,2.7915,2.8027,2.8028,0,0,0,0,0,0,0,0,0,0,0,2.7789,2.779,2.779,2.7822,2.7915,2.7915,2.8027,2.7959,0,0,0,0,0,0,0,0,0,0,2.7869,2.7839,2.7789,2.7791,2.7823,2.7915,2.7915,2.7956,2.7963,2.7983,0,2.8001,0,2.8017,2.8036,2.8036,0,0,0,2.7823,2.7832,2.7861,2.7791,2.7823,2.7915,2.7873,2.796,2.7968,2.7993,2.8002,2.8007,2.8018,2.8036,2.8037,2.8149,2.815,0,0,2.7818,2.7804,2.7855,2.7866,2.7853,2.787,2.7876,2.7965,2.7974,2.8003,2.8009,2.802,2.8037,2.8038,2.8149,2.815,0,0,0,2.7802,2.78,2.7826,2.7861,2.7879,2.7873,2.788,2.797,2.798,2.8011,2.8022,2.8038,2.8039,2.8149,2.8149,2.8159,0,0,0,2.7799,2.7791,2.7824,2.7816,2.7877,2.7926,2.7883,2.7974,2.7984,2.8021,2.8038,2.804,2.8148,2.8149,2.8158,2.8166,0,0,0,2.7784,2.7789,2.7802,2.7815,2.7855,2.7925,2.794,2.7976,2.7991,2.8036,2.804,2.8148,2.8149,2.8157,2.8164,2.8192,0,0,0,2.7763,2.7807,2.7802,2.7856,2.7854,2.7931,2.7939,2.7996,2.8036,2.8038,2.8148,2.8149,2.8156,2.8163,2.8191,2.8214,2.8222,0,0,2.7811,2.7813,2.7846,2.7843,2.7918,2.7917,2.7993,2.8042,2.8058,2.8118,2.8121,2.8158,2.8164,2.8192,2.8273,2.8279,0,0,0,2.7856,2.788,2.7902,2.7941,2.7981,2.8016,2.8055,2.8074,2.8126,2.8086,2.8176,2.818,2.8197,2.8209,2.8214,2.823,2.8154,2.8154,2.8154,2.7903,2.7924,2.798,2.8012,2.8049,2.8091,2.8122,2.8154,2.8162,2.8183,2.8201,2.8247,2.8261,2.8265,2.8281,2.8214,2.8214,2.8214,2.8214,2.7976,2.8013,2.8025,2.8084,2.8105,2.8154,2.8196,2.82,2.8249,2.8235,2.8251,2.8235,2.8271,2.8287,2.8215,2.8215,2.8215,2.8215,2.8215,2.8009,2.8031,2.8054,2.8113,2.8156,2.8187,2.8234,2.8251,2.8266,2.8282,2.8304,2.8304,2.8306,2.8292,2.8292,2.8292,2.8292,2.8292,2.8292,2.8035,2.8061,2.81,2.8147,2.8175,2.8214,2.8257,2.8284,2.8319,2.8328,2.8328,2.8334,2.8271,2.8256,2.8295,2.8294,2.8294,2.8294,2.8294,2.8103,2.8091,2.815,2.8178,2.8236,2.8279,2.83,2.8355,2.838,2.8403,2.8406,2.8357,2.8359,2.8355,2.8342,2.8401,2.8401,2.8401,2.8401,2.8131,2.8135,2.8201,2.8245,2.829,2.8316,2.8382,2.8416,2.8449,2.8466,2.846,2.8444,2.8439,2.8444,2.8438,2.8426,2.8505,2.8506,2.8506,2.8175,2.8184,2.8237,2.8271,2.8318,2.8358,2.8421,2.8471,2.8505,2.851,2.8479,2.8475,2.845,2.844,2.8445,2.8435,2.8413,0,0]}]]